Location: Unspecified
(42.2600°N, 0.0000°E)
Time: 19:54:00
(UTC+00:00)

N. Korean satellite - Visible Passes

Search period start: 15 October 2019 00:00
Search period end: 25 October 2019 00:00
Orbit: 455 x 508 km, 97.2° (Epoch: 14 October)

Date Brightness Start Highest point End Pass type
(mag) Time Alt. Az. Time Alt. Az. Time Alt. Az.
15 Oct 8.9 05:23:24 10° NE 05:26:35 29° E 05:29:46 10° SSE visible
16 Oct 10.1 04:59:02 10° ENE 05:01:09 15° E 05:03:16 10° SE visible
17 Oct 10.5 18:17:44 10° WSW 18:18:46 11° W 18:19:48 10° WNW visible
18 Oct 7.7 05:40:38 10° NNE 05:44:08 50° E 05:47:41 10° S visible
18 Oct 9.4 17:50:31 10° SSW 17:53:17 23° W 17:56:04 10° NW visible
19 Oct 9.3 05:15:46 10° NE 05:18:46 24° E 05:21:47 10° SSE visible
20 Oct 10.3 04:51:46 10° ENE 04:53:18 12° E 04:54:50 10° ESE visible
21 Oct 10.1 18:09:01 10° SW 18:10:52 14° W 18:12:44 10° WNW visible
22 Oct 8.2 05:32:52 10° NNE 05:36:19 40° E 05:39:47 10° S visible
22 Oct 8.9 17:42:24 10° SSW 17:45:24 28° W 17:48:26 10° NW visible
23 Oct 9.7 05:08:10 10° NE 05:10:55 20° E 05:13:40 10° SE visible
